PEGASUS DEB

Satellite information

Favourite Embed

Satellite Type and Status

DEBRISIN ORBIT

Key statistics

Satellite PEGASUS DEB at a glance.

Uptime

11531

Days in orbit

Revolutions

≈ 14.6

Per day

Orbit

LEO

Low Earth Orbit

Inclination

82.0

Latest

Satellite identification and parameters

Extended collection of information and parameters for PEGASUS DEB.

Object identification

Identified? True

Debris? True

Object name: PEGASUS DEB

International designator: 1994-029QF

Object number (NORAD): 24378

Object ID (CCSDS): 24378

Country: UNITED STATES OF AMERICA (US)

Current information (Y/N): Y

RCS size: SMALL

Orbital parameters

Period: 98.717 minutes

Inclination: 82.0295 deg

SMA: 7075.474 km

Apoapsis: 812.127 km

Periapsis: 582.552 km

RAAN: 69.1383 deg

Eccentricy: 0.01622334

Argument of periapsis: 67.2313 deg

Mean anomaly: 294.5936 deg

Mean motion: 14.58711539 rev/day

Mean motion (dot): 0.00001535 rev/day2

B* drag term: 0.00026977859 1/REarth

Two-line elements (TLE)

Creation date: Dec. 12, 2025, 10:14 a.m.

Reference frame: TEME

Reference center: EARTH

Epoch: Dec. 12, 2025, 7:31 a.m. UTC

TLE line 0: 0 PEGASUS DEB

TLE line 1: 1 24378U 94029QF 25346.31336091 .00001535 00000-0 26978-3 0 9993

TLE line 2: 2 24378 82.0295 69.1383 0162233 67.2313 294.5936 14.58711539671412

Live tracking on map

Real-time ground track for satellite PEGASUS DEB.

In-orbit conjunctions

A list of the most updated potential collisions computed for object PEGASUS DEB.

Target Orbit TCA Probability of collision Miss distance Type
IRIDIUM 33 DEB LEO 2025-06-28 07:55:10 0.0001127152 656.0 (m) DEBRIS
SAUDISAT 1B LEO 2025-02-21 13:01:56 0.0006009976 964.0 (m) PAYLOAD

Associated space launch

PEGASUS DEB was lifted into orbit during the mission ‘Pegasus HAPS | Space Test Experiments Platform 2 (STEP-2)’, on board a Pegasus HAPS space rocket.

The launch took place on May 19, 1994, 5:03 p.m. from Edwards Air Force Base.

For more information about the launch, click the button.

Launch to space Pegasus HAPS | Space Test Experiments Platform 2 (STEP-2)
Pegasus HAPS | Space Test Experiments Platform 2 (STEP-2)

Agency: N/A

Status: Launch Successful

Launch date: May 19, 1994, 5:03 p.m. UTC

Rocket: Pegasus HAPS

Launch pad: Edwards Air Force Base

Location: Air launch to orbit

...

Latest news about this satellite

There are no fresh news available about this satellite. Check back as we update our databases every day.


Newsletter sign-up

Weekly statistics, charts and insights to help you stay on top of the space industry.